Location: Newark
(3.0500°N, 36.0167°E)
Time: 09:53:30
(UTC+00:00)

Vanguard 1 - All Passes

Search period start: 20 August 2019 00:00
Search period end: 30 August 2019 00:00
Orbit: 655 x 3829 km, 34.2° (Epoch: 19 August)

Date Brightness Start Highest point End Pass type
(mag) Time Alt. Az. Time Alt. Az. Time Alt. Az.
20 Aug - 01:05:52 10° SSW 01:18:21 19° SSE 01:27:41 10° SE visible
20 Aug - 03:31:43 10° SW 03:45:55 42° SSE 03:53:54 10° E daylight
20 Aug - 05:58:05 10° WSW 06:08:02 51° NW 06:13:46 10° NE daylight
20 Aug - 15:30:55 10° NW 15:39:28 59° NE 15:55:33 10° ESE daylight
20 Aug - 17:51:25 10° WNW 18:03:28 52° SSW 18:23:53 10° SE visible
20 Aug - 20:19:03 10° WSW 20:33:00 24° SSW 20:49:53 10° SSE visible
20 Aug - 22:56:39 10° SSW 23:08:19 15° S 23:18:58 10° SSE visible
21 Aug - 01:27:08 10° SSW 01:41:20 23° SSE 01:51:11 10° ESE visible
21 Aug - 03:52:56 10° SW 04:07:37 57° SSE 04:15:26 10° ENE daylight
21 Aug - 06:20:33 10° WSW 06:28:51 32° NW 06:34:06 10° NNE daylight
21 Aug - 13:34:55 10° N 13:39:23 17° NE 13:45:25 10° ENE daylight
21 Aug - 15:51:39 10° NW 16:00:34 80° NE 16:17:48 10° SE visible
21 Aug - 18:13:22 10° W 18:25:37 41° SSW 18:45:08 10° SE visible
21 Aug - 20:43:25 10° SW 20:56:34 20° SSW 21:11:32 10° SSE visible
21 Aug - 23:20:07 10° SSW 23:32:31 16° S 23:43:15 10° SE visible
22 Aug - 01:48:15 10° SSW 02:03:59 29° SSE 02:14:04 10° E visible
22 Aug - 04:14:25 10° SW 04:29:04 79° SE 04:36:38 10° ENE daylight
22 Aug - 06:43:43 10° W 06:49:42 20° NW 06:54:02 10° N daylight
22 Aug - 13:54:35 10° NNW 14:00:23 26° NE 14:09:24 10° E daylight
22 Aug - 16:12:36 10° WNW 16:21:51 79° SW 16:39:39 10° SE visible
22 Aug - 18:35:47 10° W 18:48:03 32° SSW 19:06:19 10° SSE visible
22 Aug - 21:08:14 10° SW 21:20:33 17° S 21:33:47 10° SSE visible
22 Aug - 23:42:31 10° SSW 23:56:23 19° SSE 00:07:42 10° SE visible
23 Aug - 02:09:23 10° SW 02:26:18 38° SSE 02:36:23 10° E visible
23 Aug - 04:36:13 10° WSW 04:50:14 76° NW 04:57:32 10° NE daylight
23 Aug - 07:08:20 10° WNW 07:10:44 12° NW 07:12:49 10° NNW daylight
23 Aug - 14:14:44 10° NNW 14:21:16 39° NE 14:32:32 10° ESE daylight
23 Aug - 16:33:50 10° WNW 16:43:24 60° SSW 17:01:13 10° SE visible
23 Aug - 18:58:45 10° WSW 19:10:50 26° SSW 19:27:33 10° SSE visible
23 Aug - 21:32:58 10° SW 21:44:50 16° S 21:56:58 10° SSE visible
24 Aug - 00:04:13 10° SSW 00:19:51 22° SSE 00:31:47 10° ESE visible
24 Aug - 02:30:35 10° SW 02:48:20 49° SSE 02:58:15 10° ENE visible
24 Aug - 04:58:24 10° WSW 05:11:13 53° NW 05:18:11 10° NE daylight
24 Aug - 14:35:12 10° NW 14:42:09 58° NE 14:55:05 10° ESE daylight
24 Aug - 16:55:24 10° W 17:05:13 46° SSW 17:22:32 10° SE visible
24 Aug - 19:22:22 10° WSW 19:33:59 21° SSW 19:48:58 10° SSE visible
24 Aug - 21:56:54 10° SSW 22:09:13 16° S 22:21:12 10° SE visible
25 Aug - 00:25:34 10° SSW 00:42:54 28° SSE 00:55:14 10° ESE visible
25 Aug - 02:51:58 10° SW 03:10:05 65° SSE 03:19:43 10° ENE visible
25 Aug - 05:21:06 10° WSW 05:32:05 36° NW 05:38:35 10° NNE daylight
25 Aug - 12:39:55 10° NNE 12:42:43 13° NE 12:46:05 10° ENE daylight
25 Aug - 14:55:55 10° NW 15:03:09 82° NE 15:17:09 10° SE daylight
25 Aug - 17:17:23 10° W 17:27:19 35° SSW 17:43:42 10° SSE visible
25 Aug - 19:46:34 10° SW 19:57:32 18° S 20:10:49 10° SSE visible
25 Aug - 22:19:46 10° SSW 22:33:27 18° S 22:46:04 10° SE visible
26 Aug - 00:46:47 10° SSW 01:05:36 35° SSE 01:18:04 10° E visible
26 Aug - 03:13:36 10° SW 03:31:34 84° SE 03:40:53 10° NE visible
26 Aug - 05:44:26 10° W 05:53:00 24° NW 05:58:39 10° N daylight
26 Aug - 12:59:09 10° N 13:03:41 22° NE 13:10:10 10° E daylight
26 Aug - 15:16:53 10° WNW 15:24:23 72° SW 15:38:51 10° SE daylight
26 Aug - 17:39:50 10° WSW 17:49:42 27° SSW 18:04:48 10° SSE visible
26 Aug - 20:11:02 10° SW 20:21:31 16° S 20:33:28 10° SSE visible
26 Aug - 22:41:49 10° SSW 22:57:20 21° SSE 23:10:50 10° ESE visible
27 Aug - 01:07:58 10° SW 01:27:57 44° SSE 01:40:22 10° E visible
27 Aug - 03:35:34 10° WSW 03:52:49 74° NW 04:01:47 10° NE daylight
27 Aug - 06:08:43 10° WNW 06:14:03 15° NW 06:18:09 10° N daylight
27 Aug - 13:19:11 10° NNW 13:24:30 36° NE 13:33:06 10° ESE daylight
27 Aug - 15:38:10 10° WNW 15:45:54 52° SSW 16:00:14 10° SE visible
27 Aug - 18:02:53 10° WSW 18:12:26 22° SSW 18:25:55 10° SSE visible
27 Aug - 20:35:07 10° SSW 20:45:44 15° S 20:57:20 10° SSE visible
27 Aug - 23:03:19 10° SSW 23:20:47 25° SSE 23:35:04 10° ESE visible
28 Aug - 01:29:15 10° SW 01:50:02 56° SSE 02:02:11 10° ENE visible
28 Aug - 03:57:56 10° WSW 04:13:52 55° NW 04:22:28 10° NE daylight
28 Aug - 13:39:37 10° NW 13:45:20 57° NE 13:55:25 10° ESE daylight
28 Aug - 15:59:48 10° W 16:07:40 38° SSW 16:21:23 10° SE visible
28 Aug - 18:26:33 10° SW 18:35:30 17° SSW 18:47:14 10° SSE visible
28 Aug - 20:58:17 10° SSW 21:10:02 16° S 21:22:20 10° SE visible
28 Aug - 23:24:35 10° SSW 23:43:50 31° SSE 23:58:35 10° E visible
29 Aug - 01:50:43 10° SW 02:11:50 71° SE 02:23:39 10° ENE visible
29 Aug - 04:20:48 10° WSW 04:34:51 39° NW 04:42:55 10° NNE daylight
29 Aug - 11:45:29 10° NNE 11:46:15 10° NE 11:47:04 10° NE daylight
29 Aug - 14:00:21 10° NW 14:06:19 87° NE 14:17:16 10° SE daylight
29 Aug - 16:21:52 10° W 16:29:42 28° SSW 16:42:21 10° SSE visible
29 Aug - 18:50:45 10° SW 18:58:58 15° S 19:09:04 10° SSE visible
29 Aug - 21:20:31 10° SSW 21:34:09 18° SSE 21:47:49 10° SE visible
